User: anonymous   Login
Location: Haliburton Scout Reserve
(45.0900°N, 78.3200°W)
Time: 08:49:38
(UTC-04:00)
Language:

RS-15 - Orbit

View from above orbital plane
View from above orbital plane
View from above satellite
View from above satellite

Ground track
Ground track

The orbit data is extracted from the following two-line orbital elements,

1 23439U 94085A   24205.92011618 -.00000039  00000-0  93382-4 0  9990
2 23439  64.8205 344.3640 0149294 136.8175 224.4569 11.27577758217734
Epoch (UTC): 23 July 2024 22:04:58
Eccentricity: 0.0149294
inclination: 64.8205°
perigee height: 1897 km
apogee height: 2148 km
right ascension of ascending node: 344.3640°
argument of perigee: 136.8175°
revolutions per day: 11.27577758
mean anomaly at epoch: 224.4569°
orbit number at epoch: 21773

The dashed part of the orbit path shows where the satellite is in the earth's shadow,  

DLR